STARLINK-34942 (65181 NORAD) Tracking and Keplerian Element Data

This shows tracking and keplerian element data for the satellite.

Feedback or suggestion? Click here.




ElementValue
Catalog65181
NameSTARLINK-34942
Epoch Orbit2063
Epoch Day354.11267795
Epoch Year2025
RAAN224.1794
Inclination97.6036
Eccentricity0.0003514
Argument of Perigee69.5592
Mean Anonmoly290.6012
Mean Motion15.05651625
Decay Rate2.834E-05
L11 65181U 25175H 25354.11267795 .00002834 00000+0 20053-3 0 9997
L22 65181 97.6036 224.1794 0003514 69.5592 290.6012 15.05651625 20639



Live tracking and technical data element details for STARLINK-34942 (NORAD 65181). STARLINK-34942 can be tracked NOW for your location showing map with azimuth and elevation plus other details from your city location.







IsCatalogInMostPopularTable: catalog: 65181, numindb: 3
Update: records affected: 1



GetName: 65181 STARLINK-34942

Hit Count: updated at: Mon, 09 Feb 2026 09:26:48 GMT